Regional Weather Roundup
Issued by NWS

Home | Current Version | Previous Version | Text Only | Print | Product List | Glossary Off
Versions: 1 2 3 4 5 6 7 8 9 10 11 12 13 14 15 16 17 18 19 20 21 22 23 24 25 26 27 28 29 30 31 32 33 34 35 36 37 38 39 40 41 42 43 44 45 46 47 48 49 50

000
ASUS43 KBIS 300610
RWRND

NORTH DAKOTA REGIONAL WEATHER ROUNDUP
NATIONAL WEATHER SERVICE BISMARCK ND
1200 AM CST FRI JAN 30 2015

NOTE: "FAIR" INDICATES FEW OR NO CLOUDS BELOW 12,000 FEET WITH NO
SIGNIFICANT WEATHER AND/OR OBSTRUCTIONS TO VISIBILITY.


NDZ001>003-009>011-017-300700-
NORTHWEST NORTH DAKOTA

CITY           SKY/WX    TMP DP  RH WIND       PRES   REMARKS
WILLISTON      CLEAR     26  20  77 S5        30.25F
6HR MIN TEMP:  21; 6HR MAX TEMP:  28;

MINOT          MOCLDY    16  12  84 SE9       30.33F WCI   4
MINOT AFB      CLOUDY    16  16  99 SE10      30.34F WCI   4
$$

NDZ018>021-031>035-040>046-300700-
SOUTHWEST NORTH DAKOTA

CITY           SKY/WX    TMP DP  RH WIND       PRES   REMARKS
BISMARCK       CLEAR     15  13  91 SE5       30.41F WCI   8
6HR MIN TEMP:  15; 6HR MAX TEMP:  25;

DICKINSON      CLEAR     24  17  74 S10       30.26F WCI  14
GARRISON         N/A     17  15  92 SE7       30.34F WCI   8
6HR MIN TEMP:  16; 6HR MAX TEMP:  21;

HETTINGER ARPT CLEAR     25  15  66 SE8       30.31F WCI  16
$$

NDZ004>008-012>016-024-026-027-054-300700-
NORTHEAST NORTH DAKOTA

CITY           SKY/WX    TMP DP  RH WIND       PRES   REMARKS
GRAND FORKS    PTCLDY     6  -1  73 SE6       30.55F WCI  -4
GRND FRKS AFB  CLOUDY     5   0  77 S6        30.55F WCI  -5
DEVILS LAKE    CLOUDY    12   7  79 SE10      30.44F WCI  -1
$$

NDZ022-023-025-028>030-036>039-047>053-300700-
SOUTHEAST NORTH DAKOTA

CITY           SKY/WX    TMP DP  RH WIND       PRES   REMARKS
FARGO          CLEAR      7   1  76 E3        30.58S
6HR MIN TEMP:   7; 6HR MAX TEMP:  14;

JAMESTOWN      CLOUDY    17  12  80 SE5       30.47F WCI  10
$$




USA.gov is the U.S. government's official web portal to all federal, state and local government web resources and services.